This demonstration page uses our WeatherBlox Daily Observations layout. Learn more.

Left ArrowRight Arrow

-33.8178, 151.00348

Hourly Observations for January 2, 2015

Temp ( °F °C ) Dew Point ( °F °C ) Humidity (%) Winds ( mph kmh ) Pressure ( in mb ) Visibility ( mi km ) Precip ( " mm )
12:00 am 00:00 Mostly Cloudy with Light Showers 75 24 72 22 89 89 S 13 20 29.97 1015 30 48 N/A
12:30 am 00:30 Mostly Cloudy with Light Showers 73 23 72 22 94 94 S 12 19 29.97 1015 30 48 N/A
1:00 am 01:00 Partly Cloudy 73 23 72 22 94 94 S 13 20 29.97 1015 6 9 N/A
1:08 am 01:08 Mostly Cloudy 72 22 72 22 100 100 S 20 31 29.97 1015 5 8 N/A
1:30 am 01:30 Mostly Cloudy 72 22 70 21 94 94 SSW 20 31 29.97 1015 6 9 N/A
2:00 am 02:00 Mostly Cloudy 72 22 68 20 88 88 S 20 31 29.97 1015 30 48 N/A
2:30 am 02:30 Mostly Cloudy 72 22 68 20 88 88 S 22 35 29.97 1015 30 48 N/A
3:00 am 03:00 Mostly Clear 72 22 68 20 88 88 S 21 33 29.97 1015 30 48 N/A
3:30 am 03:30 Mostly Clear 72 22 68 20 88 88 S 21 33 29.97 1015 30 48 N/A
4:00 am 04:00 Mostly Clear 70 21 68 20 94 94 S 18 30 29.97 1015 30 48 N/A
4:06 am 04:06 Mostly Cloudy 70 21 66 19 88 88 S 18 30 29.97 1015 30 48 N/A
4:30 am 04:30 Mostly Cloudy 70 21 66 19 88 88 S 18 30 30.00 1016 30 48 N/A
5:00 am 05:00 Mostly Cloudy 70 21 66 19 88 88 S 20 31 30.00 1016 30 48 N/A
5:30 am 05:30 Mostly Cloudy 70 21 64 18 83 83 S 20 31 30.00 1016 30 48 N/A
6:00 am 06:00 Mostly Cloudy 70 21 64 18 83 83 S 18 30 30.03 1017 30 48 N/A
6:12 am 06:12 Mostly Cloudy 70 21 66 19 88 88 S 18 30 30.03 1017 30 48 N/A
6:30 am 06:30 Mostly Cloudy 70 21 64 18 83 83 S 17 28 30.03 1017 30 48 N/A
7:00 am 07:00 Mostly Cloudy 70 21 64 18 83 83 S 17 28 30.06 1018 30 48 N/A
7:30 am 07:30 Mostly Cloudy 70 21 64 18 83 83 SSW 9 15 30.06 1018 30 48 N/A
8:00 am 08:00 Mostly Cloudy 72 22 64 18 78 78 SW 12 19 30.06 1018 30 48 N/A
8:30 am 08:30 Mostly Cloudy 72 22 64 18 78 78 SSW 10 17 30.09 1019 30 48 N/A
9:00 am 09:00 Mostly Cloudy 72 22 64 18 78 78 SSW 8 13 30.09 1019 30 48 N/A
9:30 am 09:30 Mostly Cloudy 73 23 66 19 78 78 S 14 22 30.06 1018 30 48 N/A
10:00 am 10:00 Mostly Sunny 75 24 66 19 74 74 S 15 24 30.06 1018 30 48 N/A
10:26 am 10:26 Mostly Cloudy 73 23 68 20 83 83 S 17 28 30.06 1018 30 48 N/A
10:30 am 10:30 Mostly Cloudy 73 23 68 20 83 83 S 17 28 30.06 1018 30 48 N/A
11:00 am 11:00 Mostly Cloudy 75 24 68 20 78 78 S 17 28 30.06 1018 30 48 N/A
11:30 am 11:30 Mostly Cloudy 73 23 68 20 83 83 S 17 28 30.06 1018 30 48 N/A
12:00 pm 12:00 Mostly Cloudy 73 23 68 20 83 83 S 18 30 30.09 1019 30 48 N/A
12:30 pm 12:30 Mostly Cloudy 75 24 68 20 78 78 S 16 26 30.09 1019 30 48 N/A
1:00 pm 13:00 Mostly Cloudy 75 24 68 20 78 78 S 14 22 30.06 1018 30 48 N/A
1:30 pm 13:30 Mostly Cloudy 79 26 70 21 74 74 SSE 10 17 30.06 1018 30 48 N/A
2:00 pm 14:00 Mostly Cloudy 77 25 70 21 79 79 SE 10 17 30.06 1018 30 48 N/A
2:30 pm 14:30 Mostly Cloudy 79 26 70 21 74 74 SSE 10 17 30.06 1018 30 48 N/A
3:00 pm 15:00 Mostly Cloudy 73 23 70 21 89 89 S 15 24 30.06 1018 30 48 N/A
3:16 pm 15:16 Mostly Cloudy 73 23 70 21 89 89 SSE 13 20 30.03 1017 30 48 N/A
3:30 pm 15:30 Mostly Cloudy 73 23 70 21 89 89 S 12 19 30.03 1017 30 48 N/A
4:00 pm 16:00 Mostly Cloudy 73 23 70 21 89 89 S 9 15 30.03 1017 30 48 N/A
4:17 pm 16:17 Mostly Cloudy 75 24 70 21 83 83 SSE 9 15 30.03 1017 30 48 N/A
4:30 pm 16:30 Mostly Cloudy 75 24 70 21 83 83 SSE 8 13 30.03 1017 30 48 N/A
5:00 pm 17:00 Mostly Cloudy 75 24 70 21 83 83 S 8 13 30.00 1016 30 48 N/A
5:30 pm 17:30 Mostly Cloudy 75 24 72 22 89 89 S 3 6 30.00 1016 30 48 N/A
6:00 pm 18:00 Mostly Cloudy 75 24 72 22 89 89 S 8 13 30.00 1016 30 48 N/A
6:30 pm 18:30 Mostly Cloudy 75 24 72 22 89 89 S 8 13 30.00 1016 30 48 N/A
7:00 pm 19:00 Mostly Cloudy 75 24 72 22 89 89 S 7 11 30.00 1016 30 48 N/A
7:30 pm 19:30 Mostly Cloudy 75 24 72 22 89 89 SSE 6 9 30.03 1017 30 48 N/A
8:00 pm 20:00 Mostly Cloudy 73 23 72 22 94 94 S 7 11 30.06 1018 6 9 N/A
8:22 pm 20:22 Mostly Cloudy 75 24 72 22 89 89 SSE 8 13 30.06 1018 30 48 N/A
8:30 pm 20:30 Mostly Cloudy 75 24 72 22 89 89 SSE 9 15 30.06 1018 30 48 N/A
9:00 pm 21:00 Mostly Cloudy 73 23 72 22 94 94 S 8 13 30.06 1018 5 8 N/A
9:30 pm 21:30 Mostly Cloudy 73 23 72 22 94 94 S 8 13 30.09 1019 5 8 N/A
10:00 pm 22:00 Mostly Cloudy 73 23 72 22 94 94 SSE 7 11 30.09 1019 6 9 N/A
10:30 pm 22:30 Mostly Cloudy with Haze 73 23 72 22 94 94 SE 6 9 30.09 1019 5 8 N/A
10:46 pm 22:46 Mostly Cloudy 73 23 72 22 94 94 SE 6 9 30.09 1019 6 9 N/A
11:00 pm 23:00 Mostly Cloudy with Haze 73 23 72 22 94 94 SE 6 9 30.09 1019 6 9 N/A
11:30 pm 23:30 Mostly Cloudy 73 23 72 22 94 94 ENE 5 7 30.09 1019 6 9 N/A

Powered by Vaisala Xweather